Location: Risskov
(56.1972°N, 10.2480°E)
Time: 23:41:48
(UTC+00:00)

Cosmos 1825 - Pass Details

Date: 05 July 2020
Orbit: 502 x 509 km, 82.5° (Epoch: 14 August)

Event Time Altitude Azimuth Distance (km) Brightness Sun altitude
Exits shadow 23:32:47 - 229° (SW) 1,936 4.7 -11.1°
Reaches altitude 10° 23:33:22 10° 233° (SW) 1,729 4.5 -11.1°
Maximum altitude 23:36:40 28° 293° (WNW) 993 3.8 -11.1°
Drops below altitude 10° 23:40:00 10° 354° (N) 1,744 6.4 -11.1°
Sets 23:42:22 0° 7° (N) 2,635 8.1 -11.0°
